[[{"header":{"parameterUnit":"m.s-1","parameterCategory":2,"la1":30.2991,"la2":30.254,"lo1":-89.0895,"lo2":-89.0444,"dy":0.0017,"dx":0.0017,"nx":28,"ny":28,"refTime":"2024-08-13T21:00:00:Z","depth":"0","parameterNumber":2,"parameterNumberName":"U-component_of_CURRENTS"},"data":[0,0,0,0,0,0,0,0,0,0,0,0,0,0,0,0,0,0,0,0,0,0,0,0,0,0,0,0,0,0,0,0,0,0,0,0,0,0,0,0,0,0,0,0,0,0,0,0,0,0,0,0,0,0,0,0,0,0,-0.0092,-0.0089,0,-0.0033,-0.0035,-0.0037,-0.0163,-0.0164,-0.0166,-0.0167,-0.0263,-0.0264,-0.0266,0,0,0,0,0,0,0,0,0,0,0,0,0,-0.005,-0.0055,-0.0093,-0.0089,-0.0086,-0.0033,-0.0035,-0.0037,-0.0163,-0.0165,-0.0166,-0.0168,-0.0263,-0.0264,-0.0266,0,0,0,0,0,0,0,0,0,0,0,0,0,-0.0067,-0.0056,-0.0093,-0.012,-0.012,-0.0033,-0.0035,-0.0038,-0.0163,-0.0165,-0.0167,-0.0168,-0.0262,-0.0264,-0.0266,-0.0238,0,0,-0.0272,-0.0273,0,0,0,0,0,0,0,0,-0.0066,-0.0073,-0.012,-0.0118,-0.0117,-0.0081,-0.0053,-0.0102,-0.0162,-0.0178,-0.0167,-0.0169,-0.0196,-0.0203,-0.0228,-0.0242,-0.0246,-0.0272,-0.0273,-0.0274,-0.0275,0,0,0,0,0,0,0,-0.0065,-0.0073,-0.01,-0.0115,-0.0113,-0.0041,-0.0053,-0.0064,-0.0202,-0.0177,-0.0178,-0.0123,-0.0201,-0.0226,-0.0231,-0.0248,-0.0272,-0.0274,-0.0275,-0.0276,-0.0402,-0.0404,0,0,0,0,0,0,-0.0025,-0.0075,-0.0101,-0.0095,-0.0062,-0.004,-0.0053,-0.0115,-0.0199,-0.0203,-0.0121,-0.0129,-0.0222,-0.0229,-0.0235,-0.0262,-0.0274,-0.0276,-0.0277,-0.04,-0.0403,-0.0405,0,0,0,0,0,0,-0.0027,-0.0033,-0.0103,-0.0051,-0.0052,-0.0038,-0.0106,-0.0112,-0.0144,-0.0149,-0.0165,-0.0143,-0.0224,-0.0232,-0.025,-0.0265,-0.0277,-0.0279,-0.0398,-0.0401,-0.0404,-0.028,0,0,0,0,0,0,-0.0028,-0.0038,-0.0049,-0.0053,-0.0052,-0.0142,-0.0101,-0.0109,-0.0091,-0.0102,-0.0172,-0.0183,-0.0226,-0.0246,-0.0252,-0.0268,-0.028,-0.0395,-0.0399,-0.0403,-0.0282,-0.0279,-0.0277,0,0,0,0,0,-0.0029,-0.0055,-0.0054,-0.0052,-0.0082,-0.0142,-0.0145,-0.0152,-0.009,-0.0175,-0.0146,-0.0182,-0.028,-0.0247,-0.0253,-0.027,-0.0393,-0.0398,-0.0403,-0.0283,-0.0279,-0.0277,0,0,0,0,0,0,-0.004,-0.0067,-0.0067,-0.0101,-0.0147,-0.0155,-0.0154,-0.0139,-0.0179,-0.0161,-0.0166,-0.0179,-0.0223,-0.0262,-0.0226,-0.0333,-0.0359,-0.0366,-0.0267,-0.0264,-0.0262,-0.0291,-0.0282,0,0,0,0,0,-0.0036,-0.0063,-0.0107,-0.0119,-0.0149,-0.0142,-0.0136,-0.0168,-0.0176,-0.0197,-0.0219,-0.0237,-0.0246,-0.0261,-0.0323,-0.0331,-0.0355,-0.037,-0.0367,-0.0364,-0.0401,-0.0415,-0.0415,-0.0421,-0.0421,-0.0421,0,0,-0.001,-0.0026,-0.003,-0.0116,-0.0131,-0.0188,-0.016,-0.0195,-0.0206,-0.0193,-0.0219,-0.0234,-0.0253,-0.0294,-0.0319,-0.032,-0.0367,-0.037,-0.0366,-0.0406,-0.042,-0.0418,-0.0417,-0.0425,-0.0424,-0.0423,0,0,0.002,-0.0036,-0.006,-0.0121,-0.0155,-0.0193,-0.0203,-0.0257,-0.0273,-0.0284,-0.0262,-0.0272,-0.0312,-0.0326,-0.032,-0.0337,-0.0362,-0.0376,-0.0361,-0.0371,-0.0369,-0.0368,-0.034,-0.0337,-0.036,-0.036,-0.036,0,0.0044,-0.002,-0.0072,-0.0126,-0.0147,-0.0197,-0.0256,-0.0274,-0.0313,-0.0293,-0.0311,-0.0319,-0.0329,-0.0304,-0.0317,-0.0328,-0.0329,-0.0343,-0.036,-0.036,-0.0361,-0.0333,-0.0332,-0.0355,-0.0355,-0.0356,-0.0357,0,0.0031,-0.0021,-0.0046,-0.0146,-0.0194,-0.0272,-0.0312,-0.0354,-0.034,-0.0332,-0.0345,-0.0358,-0.0361,-0.0366,-0.0326,-0.0337,-0.0331,-0.035,-0.0344,-0.0351,-0.0323,-0.0323,-0.0347,-0.0349,-0.0351,-0.0352,0,0,0.001,-0.005,-0.0071,-0.01,-0.0233,-0.0278,-0.0304,-0.0358,-0.0312,-0.0379,-0.0328,-0.035,-0.0349,-0.035,-0.0329,-0.0333,-0.0288,-0.0334,-0.0337,-0.0265,-0.0279,-0.0173,-0.0163,-0.0293,-0.0294,-0.0295,-0.0233,0,-0.0023,-0.0084,-0.0126,-0.02,-0.0262,-0.0322,-0.0332,-0.0353,-0.0353,-0.0329,-0.0327,-0.0307,-0.0337,-0.0311,-0.0323,-0.0307,-0.0297,-0.0303,-0.0324,-0.0325,-0.0195,-0.0163,-0.0007,0.0068,-0.0233,-0.0234,-0.0234,0,-0.0076,-0.0112,-0.0174,-0.0218,-0.0253,-0.0293,-0.0323,-0.0334,-0.0301,-0.0287,-0.0285,-0.0274,-0.027,-0.0299,-0.0317,-0.0314,-0.0301,-0.0302,-0.03,-0.026,-0.0222,0.0007,0.0078,0.0089,-0.0235,-0.0235,-0.0235,0,-0.0081,-0.0158,-0.0191,-0.0227,-0.029,-0.0296,-0.0326,-0.0313,-0.0287,-0.0251,-0.0228,-0.0242,-0.0224,-0.0266,-0.0253,-0.0282,-0.0259,-0.0292,-0.0193,-0.0184,-0.0093,-0.0074,0.0011,-0.0318,-0.0318,-0.0318,-0.0318,0,-0.0137,-0.0177,-0.018,-0.022,-0.0217,-0.0271,-0.0245,-0.0254,-0.0239,-0.019,-0.0202,-0.017,-0.022,-0.0196,-0.0226,-0.0188,-0.0237,-0.0194,-0.0167,-0.0041,-0.0019,-0.0045,-0.0201,-0.0315,-0.0316,-0.0316,-0.0317,0,-0.0144,-0.0164,-0.0197,-0.0233,-0.0216,-0.0213,-0.0197,-0.0172,-0.018,-0.0119,-0.0112,-0.01,-0.0075,-0.0094,-0.0105,-0.0116,-0.0113,-0.0083,0.0096,0.0141,0.0218,0.0059,-0.0028,-0.0015,0.0014,0.0017,0.0019,0,-0.0149,-0.0163,-0.0164,-0.0151,-0.0168,-0.0142,-0.0114,-0.0124,-0.0095,-0.007,-0.0039,0.0007,0.0073,0.0112,0.0123,0.013,0.0017,0.027,0.0219,0.0253,0.0094,-0.0043,-0.0038,0.041,0.0415,0.0419,0.0423,0,-0.0165,-0.0158,-0.017,-0.0126,-0.0098,-0.0053,-0.0023,0.0015,0.0012,0.0047,0.0097,0.0147,0.0241,0.034,0.0384,0.04,0.0247,0.0361,0.034,0.0352,0.0254,0.0275,0.0353,0.0463,0.0459,0.0456,0.0454,0.0452,-0.0158,-0.0142,-0.0132,-0.0085,-0.0053,-0.0001,0.0041,0.0076,0.0131,0.0174,0.0222,0.0316,0.0477,0.0568,0.0617,0.0762,0.0485,0.0746,0.054,0.0396,0.0421,0.0604,0.0771,0.0769,0.0767,0.0766,0.0764,0,-0.0142,-0.0113,-0.0085,-0.0046,-0.0021,0.0,0.0078,0.0113,0.0184,0.0265,0.0329,0.054,0.0731,0.0857,0.1012,0.0971,0.0915,0.089,0.0737,0.0726,0.0905,0.0948,0.123,0.123,0.123,0.123,0.123,0.123,-0.0138,-0.0092,-0.0065,-0.0012,0.0004,0.0054,0.0097,0.016,0.023,0.0372,0.0491,0.0587,0.0772,0.0881,0.1031,0.1032,0.0847,0.0758,0.0601,0.0745,0.0718,0.0691,0.071,0.0937,0.0936,0.061,0.0606,0.0603]},{"header":{"parameterUnit":"m.s-1","parameterCategory":2,"la1":30.2991,"la2":30.254,"lo1":-89.0895,"lo2":-89.0444,"dy":0.0017,"dx":0.0017,"nx":28,"ny":28,"refTime":"2024-08-13T21:00:00:Z","depth":"0","parameterNumber":3,"parameterNumberName":"V-component_of_CURRENTS"},"data":[0,0,0,0,0,0,0,0,0,0,0,0,0,0,0,0,0,0,0,0,0,0,0,0,0,0,0,0,0,0,0,0,0,0,0,0,0,0,0,0,0,0,0,0,0,0,0,0,0,0,0,0,0,0,0,0,0,0,-0.0191,-0.0191,0,-0.0194,-0.0193,-0.0193,-0.0139,-0.0138,-0.0136,-0.0135,-0.0008,-0.0006,-0.0003,0,0,0,0,0,0,0,0,0,0,0,0,0,-0.0227,-0.0226,-0.0191,-0.0191,-0.0192,-0.0194,-0.0193,-0.0193,-0.0139,-0.0138,-0.0136,-0.0135,-0.0008,-0.0006,-0.0003,0,0,0,0,0,0,0,0,0,0,0,0,0,-0.0217,-0.0226,-0.0191,-0.0166,-0.0164,-0.0194,-0.0193,-0.0193,-0.014,-0.0138,-0.0136,-0.0134,-0.0009,-0.0006,-0.0003,-0.002,0,0,0.0007,0.0009,0,0,0,0,0,0,0,0,-0.0217,-0.0215,-0.017,-0.0168,-0.0166,-0.0166,-0.016,-0.013,-0.014,-0.0147,-0.0135,-0.0133,-0.0051,-0.0044,-0.0048,-0.0014,-0.0009,0.0008,0.001,0.0011,0.0012,0,0,0,0,0,0,0,-0.0218,-0.0215,-0.019,-0.017,-0.0168,-0.0185,-0.0181,-0.0154,-0.0106,-0.0146,-0.0143,-0.0147,-0.0049,-0.0052,-0.0044,-0.0007,0.0008,0.0011,0.0013,0.0014,0.0013,0.0011,0,0,0,0,0,0,-0.0219,-0.0215,-0.019,-0.019,-0.019,-0.0186,-0.0181,-0.0166,-0.0109,-0.01,-0.0148,-0.0144,-0.0058,-0.0048,-0.0039,-0.0058,0.0011,0.0014,0.0016,0.0015,0.0013,0.0011,0,0,0,0,0,0,-0.022,-0.0216,-0.019,-0.0206,-0.0204,-0.0187,-0.0171,-0.0167,-0.0153,-0.0112,-0.01,-0.0137,-0.0056,-0.0044,-0.0016,-0.0052,0.0016,0.0019,0.0018,0.0014,0.0012,-0.0093,0,0,0,0,0,0,-0.022,-0.0216,-0.0212,-0.0205,-0.0203,-0.0208,-0.0173,-0.0169,-0.0161,-0.0155,-0.0099,-0.0086,-0.0054,-0.0021,-0.0012,-0.0046,0.0021,0.002,0.0016,0.0013,-0.0087,-0.0099,-0.011,0,0,0,0,0,-0.0221,-0.0238,-0.0211,-0.0209,-0.0195,-0.0209,-0.021,-0.0191,-0.0162,-0.0168,-0.0129,-0.0087,-0.0039,-0.002,-0.0009,-0.0043,0.0022,0.0017,0.0013,-0.0082,-0.0097,-0.0109,0,0,0,0,0,0,-0.0272,-0.0234,-0.0204,-0.0211,-0.0205,-0.02,-0.0209,-0.019,-0.0167,-0.0149,-0.01,-0.0087,-0.0093,-0.0048,-0.0028,-0.0057,-0.0007,-0.001,-0.0083,-0.0096,-0.0108,-0.0106,0.0024,0,0,0,0,0,-0.0275,-0.0266,-0.0239,-0.0249,-0.0235,-0.0215,-0.0218,-0.0201,-0.0182,-0.0169,-0.015,-0.012,-0.011,-0.0082,-0.0079,-0.007,-0.0033,-0.009,-0.0101,-0.0111,-0.0105,-0.0068,-0.0075,-0.0004,-0.0004,-0.0004,0,0,-0.03,-0.0282,-0.0276,-0.0258,-0.0243,-0.0236,-0.0211,-0.0213,-0.0224,-0.0158,-0.0177,-0.0166,-0.0123,-0.0139,-0.0134,-0.0094,-0.0124,-0.0117,-0.0125,-0.0113,-0.0073,-0.008,-0.0085,-0.0007,-0.0007,-0.0006,0,0,-0.0362,-0.0318,-0.0326,-0.0306,-0.0284,-0.0265,-0.026,-0.0254,-0.0261,-0.0272,-0.0246,-0.0246,-0.0227,-0.0216,-0.0198,-0.0261,-0.0202,-0.0268,-0.0297,-0.0263,-0.0267,-0.0271,-0.0277,-0.028,-0.0251,-0.0252,-0.0252,0,-0.0391,-0.0384,-0.0341,-0.0337,-0.0319,-0.0271,-0.0269,-0.0279,-0.0281,-0.0293,-0.0286,-0.0291,-0.0267,-0.0263,-0.0301,-0.0287,-0.0263,-0.0247,-0.0275,-0.0278,-0.0279,-0.0284,-0.0286,-0.0257,-0.0256,-0.0256,-0.0255,0,-0.0444,-0.0428,-0.0433,-0.039,-0.0372,-0.0366,-0.0342,-0.0348,-0.0344,-0.0363,-0.0394,-0.0382,-0.0372,-0.0387,-0.0359,-0.0373,-0.0357,-0.0312,-0.0237,-0.0292,-0.0295,-0.0296,-0.0265,-0.0263,-0.0261,-0.026,0,0,-0.0513,-0.0475,-0.0475,-0.0441,-0.0385,-0.0371,-0.0377,-0.0376,-0.0373,-0.0417,-0.0444,-0.0467,-0.047,-0.0452,-0.0434,-0.0407,-0.0433,-0.0367,-0.0362,-0.0367,-0.0382,-0.0385,-0.0385,-0.0381,-0.038,-0.038,-0.0395,0,-0.0556,-0.0571,-0.0532,-0.0509,-0.0483,-0.0416,-0.0418,-0.041,-0.0421,-0.045,-0.0465,-0.049,-0.0491,-0.0486,-0.0474,-0.0426,-0.043,-0.0434,-0.0331,-0.0329,-0.0318,-0.0383,-0.0283,-0.0287,-0.0394,-0.0394,-0.0394,0,-0.0592,-0.0592,-0.06,-0.0522,-0.0502,-0.0486,-0.0426,-0.0426,-0.0444,-0.0456,-0.0483,-0.0508,-0.0514,-0.0502,-0.0461,-0.0458,-0.0447,-0.0415,-0.0413,-0.0369,-0.033,-0.024,-0.0282,-0.0088,-0.0393,-0.0394,-0.0394,0,-0.0627,-0.0611,-0.0618,-0.0593,-0.0525,-0.0509,-0.0465,-0.0445,-0.0438,-0.0466,-0.0474,-0.0494,-0.0488,-0.0469,-0.0455,-0.0444,-0.0405,-0.0371,-0.0379,-0.038,-0.025,-0.024,-0.0078,-0.0367,-0.0367,-0.0367,-0.0367,0,-0.0647,-0.0629,-0.0639,-0.0622,-0.0599,-0.0533,-0.0513,-0.0468,-0.045,-0.0452,-0.0487,-0.0496,-0.0472,-0.0471,-0.046,-0.0426,-0.0411,-0.0402,-0.0379,-0.0292,-0.0286,-0.0073,-0.0028,-0.0368,-0.0368,-0.0368,-0.0367,0,-0.0636,-0.0656,-0.064,-0.0618,-0.0608,-0.0581,-0.0515,-0.0499,-0.0469,-0.0469,-0.0481,-0.048,-0.0471,-0.0477,-0.0431,-0.0413,-0.0297,-0.0392,-0.0323,-0.0292,-0.0112,-0.008,-0.0009,0.009,-0.039,-0.039,-0.039,0,-0.0617,-0.0632,-0.0646,-0.0644,-0.0629,-0.0602,-0.0576,-0.0518,-0.0502,-0.0465,-0.0469,-0.0477,-0.0494,-0.0451,-0.0418,-0.0408,-0.0304,-0.03,-0.0267,-0.0099,-0.0045,-0.0054,0.0025,-0.0154,-0.0152,-0.0151,-0.015,0,-0.0572,-0.0608,-0.0604,-0.0631,-0.0623,-0.0606,-0.0571,-0.0564,-0.0506,-0.0497,-0.0473,-0.0481,-0.0464,-0.0404,-0.0388,-0.0348,-0.0143,-0.0271,-0.0076,0.0155,0.014,0.0247,-0.018,-0.0136,-0.0137,-0.0138,-0.0139,-0.014,-0.0531,-0.0542,-0.0582,-0.0586,-0.0594,-0.0593,-0.0573,-0.0555,-0.0523,-0.0474,-0.048,-0.0444,-0.0344,-0.031,-0.0234,0.0024,-0.0091,0.0133,0.0151,0.0121,0.0245,-0.0195,-0.0134,-0.0135,-0.0136,-0.0137,-0.0138,0,-0.0485,-0.0511,-0.0522,-0.0544,-0.0552,-0.0564,-0.055,-0.0525,-0.0505,-0.0461,-0.0433,-0.03,-0.014,0.0014,0.0276,0.0458,0.0521,0.0566,0.0651,0.0709,0.0373,0.0422,0.0585,0.0585,0.0584,0.0584,0.0584,0.0584,-0.0461,-0.0475,-0.0498,-0.0506,-0.0519,-0.0514,-0.0508,-0.0477,-0.0436,-0.0341,-0.0256,-0.0186,0.0104,0.0463,0.0871,0.0942,0.1125,0.1047,0.1105,0.0976,0.094,0.0907,0.0971,0.1247,0.1247,0.1507,0.151,0.1512]}],[{"header":{"parameterUnit":"m.s-1","parameterCategory":2,"la1":30.2991,"la2":30.254,"lo1":-89.0895,"lo2":-89.0444,"dy":0.0017,"dx":0.0017,"nx":28,"ny":28,"refTime":"2024-08-13T21:00:00:Z","depth":"2","parameterNumber":2,"parameterNumberName":"U-component_of_CURRENTS"},"data":[0,0,0,0,0,0,0,0,0,0,0,0,0,0,0,0,0,0,0,0,0,0,0,0,0,0,0,0,0,0,0,0,0,0,0,0,0,0,0,0,0,0,0,0,0,0,0,0,0,0,0,0,0,0,0,0,0,0,-0.2186,-0.2191,0,-0.2525,-0.2528,-0.253,-0.2445,-0.244,-0.2435,-0.243,-0.236,-0.2363,-0.2366,0,0,0,0,0,0,0,0,0,0,0,0,0,-0.2059,-0.2056,-0.2185,-0.2191,-0.2197,-0.2525,-0.2528,-0.253,-0.2446,-0.244,-0.2434,-0.2428,-0.236,-0.2363,-0.2366,0,0,0,0,0,0,0,0,0,0,0,0,0,-0.2208,-0.2055,-0.2184,-0.2208,-0.2215,-0.2524,-0.2528,-0.2531,-0.2447,-0.2439,-0.2432,-0.2425,-0.2358,-0.2362,-0.2366,-0.2539,0,0,-0.2379,-0.2381,0,0,0,0,0,0,0,0,-0.2199,-0.221,-0.2199,-0.2208,-0.2216,-0.2452,-0.2459,-0.252,-0.2449,-0.2339,-0.243,-0.2422,-0.2371,-0.2374,-0.2433,-0.2536,-0.2533,-0.2379,-0.2382,-0.2384,-0.2385,0,0,0,0,0,0,0,-0.2188,-0.2199,-0.23,-0.2206,-0.2217,-0.2409,-0.2413,-0.2473,-0.2369,-0.2348,-0.2347,-0.2418,-0.2369,-0.2429,-0.2429,-0.2532,-0.2379,-0.2383,-0.2385,-0.2387,-0.2485,-0.2486,0,0,0,0,0,0,-0.2161,-0.2186,-0.229,-0.2313,-0.2211,-0.2415,-0.2421,-0.2368,-0.2378,-0.2382,-0.2424,-0.2413,-0.2426,-0.2425,-0.2426,-0.2411,-0.2383,-0.2387,-0.239,-0.2485,-0.2485,-0.2486,0,0,0,0,0,0,-0.2154,-0.2162,-0.2277,-0.2281,-0.231,-0.2422,-0.2367,-0.2379,-0.2352,-0.2444,-0.2433,-0.2375,-0.242,-0.242,-0.2399,-0.2414,-0.2389,-0.2393,-0.2485,-0.2485,-0.2485,-0.2521,0,0,0,0,0,0,-0.2147,-0.2154,-0.2098,-0.2273,-0.2309,-0.2369,-0.2377,-0.2392,-0.2422,-0.2407,-0.2402,-0.2393,-0.2414,-0.2393,-0.2404,-0.242,-0.2396,-0.2485,-0.2485,-0.2485,-0.2519,-0.2522,-0.2525,0,0,0,0,0,-0.2139,-0.2137,-0.2089,-0.2106,-0.2225,-0.2371,-0.2401,-0.2454,-0.2426,-0.24,-0.24,-0.2388,-0.2401,-0.2398,-0.241,-0.2427,-0.2485,-0.2485,-0.2485,-0.2518,-0.2522,-0.2525,0,0,0,0,0,0,-0.2056,-0.2135,-0.2086,-0.2094,-0.2167,-0.236,-0.2377,-0.2424,-0.2423,-0.2363,-0.241,-0.2404,-0.2392,-0.2404,-0.2399,-0.2451,-0.2436,-0.2439,-0.2457,-0.2461,-0.2463,-0.2418,-0.2399,0,0,0,0,0,-0.2011,-0.2026,-0.2099,-0.2115,-0.2099,-0.2211,-0.2275,-0.2301,-0.2363,-0.2351,-0.2393,-0.2404,-0.2435,-0.2427,-0.2455,-0.2501,-0.2447,-0.251,-0.2513,-0.2515,-0.2484,-0.2446,-0.2442,-0.2487,-0.2487,-0.2487,0,0,-0.2002,-0.2057,-0.2059,-0.2104,-0.2134,-0.219,-0.2217,-0.2268,-0.2345,-0.2348,-0.2407,-0.2412,-0.2444,-0.2484,-0.248,-0.2475,-0.2468,-0.2516,-0.2518,-0.2484,-0.2446,-0.2442,-0.2437,-0.2487,-0.2487,-0.2487,0,0,-0.2074,-0.1972,-0.2002,-0.2022,-0.2075,-0.2154,-0.2137,-0.2251,-0.2263,-0.2365,-0.2363,-0.2347,-0.2466,-0.2466,-0.249,-0.252,-0.2481,-0.254,-0.2527,-0.2493,-0.2488,-0.2484,-0.238,-0.2365,-0.2544,-0.2545,-0.2545,0,-0.202,-0.2026,-0.2047,-0.2069,-0.2078,-0.2112,-0.2115,-0.2209,-0.2339,-0.2357,-0.2353,-0.2464,-0.2462,-0.2497,-0.2498,-0.2524,-0.2479,-0.2521,-0.2495,-0.2489,-0.2484,-0.2379,-0.2363,-0.2546,-0.2546,-0.2546,-0.2546,0,-0.2139,-0.2066,-0.2068,-0.2075,-0.2128,-0.2101,-0.22,-0.2251,-0.2296,-0.2397,-0.2422,-0.2448,-0.249,-0.2509,-0.2523,-0.2497,-0.2465,-0.2502,-0.2486,-0.2482,-0.2371,-0.2353,-0.2549,-0.2548,-0.2548,-0.2547,0,0,-0.2071,-0.2115,-0.2081,-0.2016,-0.205,-0.21,-0.2209,-0.228,-0.233,-0.2431,-0.2473,-0.2527,-0.2499,-0.2515,-0.2513,-0.2482,-0.2393,-0.2473,-0.2471,-0.2364,-0.2265,-0.21,-0.2065,-0.2444,-0.2442,-0.244,-0.2191,0,-0.2043,-0.2072,-0.2132,-0.2095,-0.2026,-0.2071,-0.2199,-0.2307,-0.2388,-0.2464,-0.2463,-0.2502,-0.2524,-0.2502,-0.2482,-0.2417,-0.2354,-0.2452,-0.2287,-0.2279,-0.2132,-0.2042,-0.2018,-0.1782,-0.2173,-0.217,-0.2168,0,-0.2062,-0.2041,-0.1996,-0.1986,-0.1955,-0.2009,-0.2077,-0.2192,-0.2334,-0.2401,-0.2436,-0.2466,-0.242,-0.2439,-0.2322,-0.2391,-0.2307,-0.226,-0.2251,-0.2066,-0.2083,-0.1856,-0.1735,-0.2139,-0.2141,-0.2143,-0.2145,0,-0.1944,-0.1922,-0.1861,-0.1829,-0.1883,-0.1885,-0.1952,-0.2128,-0.22,-0.2303,-0.2346,-0.2362,-0.2309,-0.2266,-0.2185,-0.2247,-0.2031,-0.2109,-0.1873,-0.1859,-0.178,-0.1762,-0.199,-0.199,-0.1991,-0.1991,-0.1992,0,-0.1819,-0.1715,-0.1777,-0.1671,-0.168,-0.1751,-0.1779,-0.1926,-0.2035,-0.2104,-0.2234,-0.225,-0.2265,-0.2187,-0.2133,-0.1911,-0.1983,-0.1805,-0.1774,-0.1786,-0.1772,-0.2057,-0.2068,-0.1982,-0.1984,-0.1986,-0.1987,0,-0.1641,-0.165,-0.1562,-0.1568,-0.1593,-0.1591,-0.1686,-0.1756,-0.1864,-0.1942,-0.1961,-0.209,-0.1991,-0.1971,-0.1845,-0.178,-0.1635,-0.1541,-0.151,-0.1477,-0.1493,-0.151,-0.1231,-0.1223,-0.1216,-0.121,-0.1206,0,-0.1564,-0.1483,-0.1499,-0.1486,-0.144,-0.1455,-0.1542,-0.1684,-0.1763,-0.1848,-0.1888,-0.1812,-0.1785,-0.1524,-0.139,-0.1194,-0.1374,-0.1083,-0.1187,-0.1411,-0.1411,-0.1438,-0.1463,-0.1091,-0.1085,-0.1081,-0.1078,0,-0.1378,-0.1384,-0.1357,-0.1339,-0.1363,-0.1431,-0.1504,-0.1556,-0.1716,-0.1744,-0.1735,-0.1658,-0.1412,-0.122,-0.0977,-0.0882,-0.1123,-0.0978,-0.122,-0.1283,-0.1258,-0.1265,-0.1298,-0.1038,-0.1042,-0.1045,-0.1047,-0.1049,-0.1302,-0.1303,-0.1296,-0.1255,-0.1315,-0.139,-0.1402,-0.1483,-0.1545,-0.1557,-0.1531,-0.1353,-0.1253,-0.0806,-0.0679,-0.058,-0.0658,-0.0733,-0.0756,-0.0782,-0.0807,-0.0771,-0.046,-0.046,-0.0461,-0.0461,-0.0461,0,-0.1304,-0.1267,-0.1218,-0.1235,-0.1269,-0.1273,-0.14,-0.1405,-0.1415,-0.1351,-0.1233,-0.0964,-0.0768,-0.0668,-0.044,-0.0329,-0.0393,-0.035,-0.0555,-0.0591,-0.0625,-0.0653,-0.0259,-0.0258,-0.0257,-0.0256,0,0,-0.13,-0.1316,-0.1267,-0.1223,-0.1163,-0.1197,-0.1231,-0.1229,-0.1183,-0.1029,-0.0865,-0.0734,-0.0667,-0.0488,-0.0418,-0.0348,-0.0458,-0.0283,-0.0456,-0.074,-0.0773,-0.0854,-0.0937,0,0,0,0,0]},{"header":{"parameterUnit":"m.s-1","parameterCategory":2,"la1":30.2991,"la2":30.254,"lo1":-89.0895,"lo2":-89.0444,"dy":0.0017,"dx":0.0017,"nx":28,"ny":28,"refTime":"2024-08-13T21:00:00:Z","depth":"2","parameterNumber":3,"parameterNumberName":"V-component_of_CURRENTS"},"data":[0,0,0,0,0,0,0,0,0,0,0,0,0,0,0,0,0,0,0,0,0,0,0,0,0,0,0,0,0,0,0,0,0,0,0,0,0,0,0,0,0,0,0,0,0,0,0,0,0,0,0,0,0,0,0,0,0,0,0.0296,0.03,0,0.0694,0.0698,0.0702,0.0706,0.0702,0.0697,0.0693,0.0767,0.0773,0.0779,0,0,0,0,0,0,0,0,0,0,0,0,0,-0.0033,-0.003,0.0295,0.0301,0.0306,0.0693,0.0698,0.0703,0.0707,0.0702,0.0696,0.0691,0.0765,0.0772,0.078,0,0,0,0,0,0,0,0,0,0,0,0,0,0.0206,-0.0029,0.0294,0.0358,0.0368,0.0692,0.0698,0.0704,0.0708,0.0701,0.0694,0.0688,0.0762,0.0771,0.0781,0.0979,0,0,0.081,0.0814,0,0,0,0,0,0,0,0,0.0192,0.0218,0.0343,0.0354,0.0366,0.0647,0.061,0.0782,0.071,0.0575,0.0693,0.0684,0.0705,0.0719,0.0808,0.0983,0.0986,0.0811,0.0816,0.082,0.0823,0,0,0,0,0,0,0,0.0175,0.0203,0.0449,0.035,0.0364,0.0514,0.0535,0.0646,0.0665,0.0586,0.0588,0.0642,0.0707,0.0799,0.0808,0.0987,0.081,0.0819,0.0825,0.0828,0.1055,0.1055,0,0,0,0,0,0,0.0121,0.0186,0.0436,0.0461,0.0265,0.0524,0.0548,0.056,0.0671,0.0685,0.0647,0.0641,0.0786,0.0797,0.081,0.0813,0.082,0.0829,0.0835,0.1054,0.1055,0.1055,0,0,0,0,0,0,0.0112,0.0138,0.042,0.0338,0.0385,0.0534,0.055,0.0572,0.0593,0.0722,0.0726,0.0636,0.0781,0.0797,0.0824,0.0823,0.0833,0.0842,0.1054,0.1055,0.1055,0.0969,0,0,0,0,0,0,0.01,0.0131,0.013,0.0333,0.0387,0.0526,0.0558,0.0585,0.0644,0.0636,0.0717,0.0721,0.0777,0.081,0.0834,0.0836,0.0849,0.1054,0.1054,0.1055,0.0972,0.0967,0.0962,0,0,0,0,0,0.0086,0.0099,0.0126,0.0158,0.0375,0.0526,0.0565,0.065,0.0648,0.0645,0.0691,0.0714,0.083,0.0819,0.0847,0.0851,0.1053,0.1054,0.1055,0.0974,0.0968,0.0963,0,0,0,0,0,0,-0.0053,0.0109,0.014,0.0195,0.0312,0.0525,0.0548,0.0628,0.0685,0.0636,0.0739,0.0749,0.0752,0.0832,0.0817,0.0916,0.0941,0.0947,0.087,0.0865,0.086,0.0818,0.0857,0,0,0,0,0,-0.0076,-0.0029,0.0135,0.0177,0.0204,0.0371,0.0447,0.0498,0.0592,0.0609,0.0681,0.0744,0.0809,0.0846,0.0894,0.0994,0.1004,0.1009,0.1004,0.1,0.0984,0.1046,0.1044,0.1058,0.1058,0.1058,0,0,-0.0117,-0.0013,0.0008,0.0153,0.0234,0.032,0.039,0.0452,0.054,0.061,0.0683,0.0707,0.0816,0.0876,0.0892,0.0932,0.0985,0.1001,0.0996,0.0982,0.1046,0.1045,0.1043,0.1058,0.1058,0.1058,0,0,-0.0151,-0.0111,-0.0087,-0.0008,0.011,0.0239,0.0233,0.039,0.0437,0.0554,0.0584,0.0613,0.0766,0.0833,0.0898,0.092,0.0926,0.0915,0.0906,0.0967,0.0965,0.0965,0.0895,0.089,0.0955,0.0955,0.0955,0,-0.0219,-0.0155,-0.0056,-0.0014,0.0046,0.0182,0.0211,0.0341,0.0497,0.0536,0.053,0.0703,0.0768,0.0873,0.0855,0.0911,0.0884,0.0917,0.0958,0.0959,0.0959,0.089,0.0884,0.0951,0.0952,0.0952,0.0952,0,-0.0214,-0.0186,-0.0185,-0.0075,0.0008,0.0036,0.0207,0.0284,0.0371,0.0495,0.0554,0.0657,0.0743,0.0785,0.0837,0.0876,0.0824,0.0907,0.0964,0.0952,0.0879,0.0875,0.0945,0.0947,0.0948,0.0949,0,0,-0.0334,-0.021,-0.0219,-0.0201,-0.0052,0.0016,0.0149,0.0306,0.0383,0.05,0.0576,0.0695,0.068,0.0747,0.0796,0.0877,0.0837,0.0875,0.088,0.0786,0.0842,0.0858,0.0855,0.0912,0.0913,0.0913,0.0757,0,-0.0386,-0.0338,-0.0238,-0.0194,-0.0177,-0.0031,0.0101,0.0252,0.0393,0.05,0.0602,0.0666,0.0697,0.0694,0.0765,0.0823,0.0833,0.0863,0.0884,0.0882,0.0887,0.0857,0.093,0.0804,0.0753,0.0752,0.0752,0,-0.0419,-0.0378,-0.0361,-0.0267,-0.0257,-0.0179,-0.0005,0.012,0.0325,0.0406,0.0481,0.0548,0.062,0.0664,0.0739,0.0737,0.0739,0.0802,0.08,0.085,0.0896,0.0827,0.0799,0.0746,0.0746,0.0747,0.0747,0,-0.0526,-0.0472,-0.0462,-0.0437,-0.0283,-0.0247,-0.0153,0.0061,0.0165,0.0307,0.0364,0.0459,0.0486,0.056,0.0642,0.0669,0.0716,0.0797,0.0796,0.0792,0.088,0.0885,0.0816,0.0816,0.0817,0.0817,0.0818,0,-0.059,-0.0595,-0.0526,-0.0519,-0.0483,-0.038,-0.0294,-0.0152,0.0001,0.0101,0.0239,0.032,0.0465,0.0528,0.0589,0.0653,0.066,0.0754,0.0777,0.0843,0.0846,0.0849,0.0855,0.0811,0.0813,0.0814,0.0815,0,-0.0669,-0.0632,-0.0617,-0.0542,-0.0519,-0.05,-0.0371,-0.029,-0.0158,-0.0029,-0.0007,0.0182,0.0261,0.0381,0.0497,0.058,0.0666,0.067,0.0665,0.0694,0.0685,0.0689,0.065,0.065,0.065,0.0649,0.0649,0,-0.0685,-0.0694,-0.0649,-0.064,-0.061,-0.057,-0.0501,-0.0364,-0.0272,-0.0089,-0.0039,0.0054,0.0156,0.0296,0.0496,0.0581,0.0576,0.0664,0.0791,0.0653,0.0679,0.0683,0.0686,0.0813,0.0814,0.0815,0.0816,0,-0.0724,-0.0721,-0.07,-0.068,-0.0651,-0.0594,-0.0523,-0.0466,-0.0302,-0.0198,-0.0071,-0.0002,0.0164,0.038,0.0504,0.0567,0.0679,0.0688,0.0583,0.0869,0.0804,0.083,0.0829,0.0825,0.0824,0.0823,0.0823,0.0823,-0.0748,-0.0748,-0.0731,-0.0702,-0.0671,-0.0613,-0.0558,-0.0469,-0.0348,-0.0183,-0.0146,0.0037,0.0202,0.0494,0.0552,0.0684,0.0722,0.0786,0.0784,0.0781,0.0854,0.0797,0.082,0.0819,0.0818,0.0817,0.0817,0,-0.0774,-0.0766,-0.075,-0.0703,-0.0666,-0.0646,-0.0544,-0.0464,-0.0336,-0.0202,-0.0118,0.0108,0.0338,0.0501,0.0801,0.0879,0.0856,0.0806,0.0837,0.0832,0.0827,0.0902,0.0879,0.0878,0.0877,0.0876,0,0,-0.0775,-0.0775,-0.0754,-0.0697,-0.0673,-0.0597,-0.054,-0.0421,-0.0289,-0.0149,0.0039,0.0139,0.0442,0.0603,0.07,0.0846,0.0758,0.0784,0.0754,0.0775,0.0765,0.0868,0.0986,0,0,0,0,0]}],[{"header":{"parameterUnit":"m.s-1","parameterCategory":2,"la1":30.2991,"la2":30.254,"lo1":-89.0895,"lo2":-89.0444,"dy":0.0017,"dx":0.0017,"nx":28,"ny":28,"refTime":"2024-08-13T21:00:00:Z","depth":"4","parameterNumber":2,"parameterNumberName":"U-component_of_CURRENTS"},"data":[0,0,0,0,0,0,0,0,0,0,0,0,0,0,0,0,0,0,0,0,0,0,0,0,0,0,0,0,0,0,0,0,0,0,0,0,0,0,0,0,0,0,0,0,0,0,0,0,0,0,0,0,0,0,0,0,0,0,-0.1102,-0.1103,0,-0.1123,-0.1123,-0.1123,-0.1126,-0.1127,-0.1127,-0.1127,-0.1277,-0.128,-0.1284,0,0,0,0,0,0,0,0,0,0,0,0,0,-0.0973,-0.0976,-0.1102,-0.1103,-0.1104,-0.1123,-0.1123,-0.1123,-0.1126,-0.1127,-0.1127,-0.1128,-0.1275,-0.128,-0.1284,0,0,0,0,0,0,0,0,0,0,0,0,0,-0.101,-0.0976,-0.1102,-0.1112,-0.1114,-0.1123,-0.1123,-0.1123,-0.1126,-0.1127,-0.1127,-0.1128,-0.1274,-0.1279,-0.1285,-0.1307,0,0,-0.1301,-0.1304,0,0,0,0,0,0,0,0,-0.1008,-0.1014,-0.111,-0.1112,-0.1113,-0.1128,-0.1132,-0.1193,-0.1126,-0.1115,-0.1128,-0.1128,-0.1242,-0.125,-0.1243,-0.1314,-0.1321,-0.1302,-0.1305,-0.1307,-0.1309,0,0,0,0,0,0,0,-0.1005,-0.1012,-0.1105,-0.1111,-0.1113,-0.1085,-0.1091,-0.1142,-0.1173,-0.1116,-0.1118,-0.113,-0.1243,-0.1237,-0.1247,-0.1323,-0.1302,-0.1306,-0.131,-0.1312,-0.1492,-0.1494,0,0,0,0,0,0,-0.1019,-0.1011,-0.1104,-0.1106,-0.1067,-0.1087,-0.1094,-0.1118,-0.117,-0.1179,-0.1129,-0.113,-0.1228,-0.124,-0.1252,-0.1373,-0.1307,-0.1312,-0.1316,-0.1491,-0.1493,-0.1494,0,0,0,0,0,0,-0.1017,-0.1028,-0.1103,-0.1062,-0.1071,-0.109,-0.1116,-0.1118,-0.1139,-0.1179,-0.119,-0.1152,-0.1229,-0.1245,-0.1335,-0.1376,-0.1315,-0.132,-0.1489,-0.1491,-0.1493,-0.1559,0,0,0,0,0,0,-0.1013,-0.1027,-0.1049,-0.1064,-0.1074,-0.1115,-0.1117,-0.1118,-0.1147,-0.1148,-0.1203,-0.1215,-0.123,-0.1327,-0.134,-0.1383,-0.1324,-0.1487,-0.149,-0.1493,-0.1555,-0.1563,-0.157,0,0,0,0,0,-0.1008,-0.103,-0.105,-0.1061,-0.1104,-0.1116,-0.1117,-0.1128,-0.1148,-0.115,-0.1211,-0.1215,-0.1353,-0.1333,-0.1348,-0.1393,-0.1486,-0.1489,-0.1492,-0.1551,-0.1561,-0.157,0,0,0,0,0,0,-0.098,-0.1034,-0.1055,-0.1093,-0.111,-0.1119,-0.1133,-0.1145,-0.1189,-0.1221,-0.1248,-0.1265,-0.1359,-0.1365,-0.1342,-0.145,-0.1415,-0.1421,-0.1454,-0.1464,-0.1471,-0.1428,-0.1329,0,0,0,0,0,-0.0989,-0.1016,-0.106,-0.1082,-0.1108,-0.1129,-0.114,-0.116,-0.1201,-0.1219,-0.1243,-0.13,-0.1378,-0.1414,-0.1462,-0.1529,-0.1498,-0.1562,-0.157,-0.1576,-0.155,-0.1553,-0.1558,-0.1505,-0.1505,-0.1505,0,0,-0.0979,-0.1013,-0.1027,-0.1077,-0.11,-0.1122,-0.1136,-0.1176,-0.1199,-0.1236,-0.1273,-0.1337,-0.1404,-0.148,-0.152,-0.1496,-0.1577,-0.1581,-0.1586,-0.1555,-0.1557,-0.1562,-0.1566,-0.1508,-0.1507,-0.1507,0,0,-0.0961,-0.1018,-0.1037,-0.1066,-0.1124,-0.1137,-0.1159,-0.119,-0.1218,-0.1282,-0.1325,-0.1381,-0.1483,-0.1505,-0.1549,-0.162,-0.1625,-0.1677,-0.168,-0.1685,-0.1689,-0.1691,-0.1662,-0.1661,-0.1673,-0.1673,-0.1673,0,-0.0954,-0.0996,-0.1037,-0.1069,-0.1101,-0.1148,-0.118,-0.1209,-0.1254,-0.1288,-0.1306,-0.1442,-0.1472,-0.1578,-0.1605,-0.1631,-0.1652,-0.1647,-0.1693,-0.1695,-0.1697,-0.1666,-0.1664,-0.1677,-0.1676,-0.1676,-0.1676,0,-0.0955,-0.0998,-0.1017,-0.1073,-0.1098,-0.1144,-0.1202,-0.1221,-0.1273,-0.1308,-0.1422,-0.1474,-0.1544,-0.158,-0.1626,-0.1684,-0.1701,-0.1711,-0.1666,-0.1706,-0.1671,-0.1668,-0.1682,-0.1681,-0.168,-0.1679,0,0,-0.0928,-0.1007,-0.1017,-0.1045,-0.1128,-0.1141,-0.1192,-0.1251,-0.1281,-0.1359,-0.1411,-0.1528,-0.1572,-0.1619,-0.1684,-0.1685,-0.17,-0.1724,-0.1723,-0.1684,-0.1729,-0.1601,-0.1586,-0.1768,-0.1768,-0.1768,-0.17,0,-0.093,-0.0973,-0.1022,-0.1058,-0.1093,-0.1156,-0.1183,-0.1243,-0.1303,-0.1349,-0.1459,-0.1539,-0.1597,-0.1653,-0.1679,-0.1708,-0.17,-0.1717,-0.1701,-0.1698,-0.1573,-0.1579,-0.1767,-0.1697,-0.1697,-0.1696,-0.1696,0,-0.0928,-0.096,-0.1007,-0.1062,-0.1087,-0.1106,-0.1161,-0.1209,-0.1302,-0.1353,-0.1465,-0.1554,-0.1624,-0.1644,-0.1695,-0.1738,-0.1732,-0.1725,-0.1723,-0.1569,-0.1564,-0.1649,-0.169,-0.169,-0.1691,-0.1691,-0.1692,0,-0.087,-0.0947,-0.0982,-0.1011,-0.1078,-0.1103,-0.1142,-0.1212,-0.1251,-0.1364,-0.1393,-0.1531,-0.1588,-0.1631,-0.1657,-0.1699,-0.1672,-0.1705,-0.1571,-0.1562,-0.1669,-0.1666,-0.1687,-0.1687,-0.1687,-0.1687,-0.1688,0,-0.0848,-0.0878,-0.0959,-0.0973,-0.1002,-0.1078,-0.1123,-0.1153,-0.1233,-0.1257,-0.1415,-0.1427,-0.1597,-0.1629,-0.1647,-0.1595,-0.1661,-0.1544,-0.1531,-0.1699,-0.1701,-0.1666,-0.1665,-0.1685,-0.1685,-0.1686,-0.1686,0,-0.0786,-0.0839,-0.0877,-0.0953,-0.0974,-0.1001,-0.1083,-0.1103,-0.1184,-0.1211,-0.1248,-0.1365,-0.1387,-0.15,-0.1526,-0.1537,-0.1499,-0.1455,-0.1597,-0.1598,-0.1389,-0.1392,-0.1292,-0.1287,-0.1283,-0.1279,-0.1276,0,-0.0763,-0.0783,-0.085,-0.0849,-0.0888,-0.095,-0.0977,-0.1063,-0.1066,-0.1124,-0.1102,-0.1176,-0.1245,-0.1191,-0.1312,-0.1331,-0.1331,-0.1327,-0.1381,-0.1348,-0.1347,-0.1357,-0.1366,-0.1269,-0.1268,-0.1267,-0.1265,0,-0.0729,-0.0761,-0.0782,-0.078,-0.0797,-0.0818,-0.0851,-0.0837,-0.0916,-0.0997,-0.0926,-0.0966,-0.0989,-0.1066,-0.1109,-0.1119,-0.1348,-0.1281,-0.1292,-0.1343,-0.1319,-0.1324,-0.1338,-0.125,-0.1252,-0.1254,-0.1255,0,-0.0711,-0.0702,-0.0716,-0.0713,-0.07,-0.0648,-0.0704,-0.0691,-0.071,-0.077,-0.0724,-0.0808,-0.0908,-0.0945,-0.0954,-0.0992,-0.0998,-0.1015,-0.1039,-0.1057,-0.1027,-0.0966,-0.0748,0,0,0,0,0,-0.0687,-0.0655,-0.0643,-0.0595,-0.057,-0.0559,-0.0584,-0.0646,-0.0717,-0.0623,-0.0668,-0.0664,-0.0708,-0.076,-0.0758,-0.0879,-0.1022,-0.0877,-0.1057,-0.1166,-0.1184,-0.1178,0,0,0,0,0,0,-0.0651,-0.0633,-0.0622,-0.0497,-0.044,-0.0398,-0.0406,-0.0463,-0.042,-0.0504,-0.0528,-0.0612,-0.0671,-0.0682,-0.0733,-0.0757,-0.0857,-0.0941,-0.094,-0.1156,-0.1172,-0.1186,-0.1187,0,0,0,0,0]},{"header":{"parameterUnit":"m.s-1","parameterCategory":2,"la1":30.2991,"la2":30.254,"lo1":-89.0895,"lo2":-89.0444,"dy":0.0017,"dx":0.0017,"nx":28,"ny":28,"refTime":"2024-08-13T21:00:00:Z","depth":"4","parameterNumber":3,"parameterNumberName":"V-component_of_CURRENTS"},"data":[0,0,0,0,0,0,0,0,0,0,0,0,0,0,0,0,0,0,0,0,0,0,0,0,0,0,0,0,0,0,0,0,0,0,0,0,0,0,0,0,0,0,0,0,0,0,0,0,0,0,0,0,0,0,0,0,0,0,-0.0255,-0.0255,0,-0.0256,-0.0256,-0.0256,-0.0241,-0.0241,-0.0241,-0.024,-0.0182,-0.0181,-0.018,0,0,0,0,0,0,0,0,0,0,0,0,0,-0.0241,-0.0242,-0.0255,-0.0255,-0.0255,-0.0256,-0.0256,-0.0256,-0.0241,-0.0241,-0.024,-0.024,-0.0183,-0.0181,-0.018,0,0,0,0,0,0,0,0,0,0,0,0,0,-0.0245,-0.0242,-0.0255,-0.0247,-0.0247,-0.0256,-0.0256,-0.0256,-0.0242,-0.0241,-0.024,-0.024,-0.0183,-0.0181,-0.018,-0.0181,0,0,-0.0174,-0.0174,0,0,0,0,0,0,0,0,-0.0245,-0.0246,-0.0249,-0.0248,-0.0247,-0.0248,-0.023,-0.0228,-0.0242,-0.0244,-0.024,-0.0239,-0.0199,-0.0196,-0.0199,-0.0179,-0.0176,-0.0174,-0.0173,-0.0172,-0.0172,0,0,0,0,0,0,0,-0.0245,-0.0246,-0.0255,-0.0249,-0.0248,-0.0245,-0.0245,-0.023,-0.0224,-0.0244,-0.0242,-0.0243,-0.0198,-0.02,-0.0197,-0.0175,-0.0174,-0.0173,-0.0172,-0.0171,-0.0193,-0.0194,0,0,0,0,0,0,-0.0245,-0.0246,-0.0255,-0.0255,-0.0244,-0.0245,-0.0245,-0.0248,-0.0225,-0.0222,-0.0243,-0.0242,-0.0204,-0.0199,-0.0195,-0.0216,-0.0172,-0.0171,-0.017,-0.0191,-0.0193,-0.0195,0,0,0,0,0,0,-0.0245,-0.0246,-0.0255,-0.025,-0.0251,-0.0246,-0.025,-0.0249,-0.0263,-0.0226,-0.0221,-0.0259,-0.0203,-0.0197,-0.0192,-0.0212,-0.017,-0.0168,-0.0189,-0.0192,-0.0194,-0.0244,0,0,0,0,0,0,-0.0245,-0.0246,-0.0257,-0.025,-0.0251,-0.0266,-0.025,-0.0249,-0.0263,-0.0261,-0.0237,-0.0231,-0.0202,-0.0195,-0.019,-0.0209,-0.0167,-0.0187,-0.019,-0.0193,-0.024,-0.0248,-0.0254,0,0,0,0,0,-0.0244,-0.0265,-0.0258,-0.0259,-0.0264,-0.0267,-0.0267,-0.0261,-0.0264,-0.0272,-0.0259,-0.0232,-0.0211,-0.0194,-0.0189,-0.0207,-0.0186,-0.0189,-0.0193,-0.0237,-0.0246,-0.0254,0,0,0,0,0,0,-0.0267,-0.0265,-0.0257,-0.0276,-0.0272,-0.0264,-0.0273,-0.0275,-0.0274,-0.0273,-0.0244,-0.0236,-0.0235,-0.0224,-0.0207,-0.0227,-0.0198,-0.0201,-0.0234,-0.0242,-0.0249,-0.0243,-0.0166,0,0,0,0,0,-0.0277,-0.0289,-0.028,-0.0295,-0.0293,-0.0287,-0.0293,-0.0288,-0.0282,-0.0283,-0.0271,-0.0261,-0.0247,-0.0246,-0.0227,-0.0241,-0.0179,-0.0255,-0.0262,-0.0268,-0.0262,-0.0188,-0.0187,-0.0207,-0.0207,-0.0207,0,0,-0.029,-0.029,-0.0298,-0.0301,-0.0295,-0.0312,-0.0289,-0.0298,-0.0318,-0.0275,-0.0302,-0.0275,-0.0253,-0.0259,-0.0261,-0.0253,-0.0229,-0.0272,-0.0277,-0.0268,-0.0192,-0.0189,-0.0187,-0.0209,-0.0209,-0.0208,0,0,-0.0317,-0.0319,-0.0335,-0.0341,-0.0339,-0.0336,-0.0344,-0.0345,-0.0347,-0.0365,-0.0336,-0.0334,-0.0325,-0.0314,-0.0307,-0.035,-0.0259,-0.0343,-0.0381,-0.031,-0.0306,-0.0303,-0.0208,-0.0196,-0.0358,-0.0358,-0.0358,0,-0.0332,-0.0352,-0.034,-0.0361,-0.038,-0.0354,-0.0385,-0.0384,-0.0388,-0.0389,-0.0382,-0.0369,-0.0358,-0.0356,-0.0369,-0.0366,-0.0284,-0.0346,-0.0314,-0.031,-0.0305,-0.0209,-0.0195,-0.0361,-0.036,-0.036,-0.036,0,-0.0367,-0.0392,-0.0403,-0.0423,-0.0444,-0.0461,-0.0462,-0.0476,-0.048,-0.047,-0.0467,-0.0445,-0.0437,-0.044,-0.0415,-0.0387,-0.0324,-0.0318,-0.0284,-0.0305,-0.0204,-0.0188,-0.0365,-0.0364,-0.0363,-0.0362,0,0,-0.0377,-0.0418,-0.0425,-0.0452,-0.0482,-0.0499,-0.0537,-0.0548,-0.0568,-0.0553,-0.0569,-0.0551,-0.0515,-0.0505,-0.0473,-0.0422,-0.0327,-0.0352,-0.0346,-0.0241,-0.012,-0.0117,-0.0098,-0.0286,-0.0284,-0.0282,-0.0056,0,-0.0404,-0.0456,-0.0481,-0.0546,-0.0572,-0.059,-0.0634,-0.0645,-0.0639,-0.0643,-0.0598,-0.0596,-0.0545,-0.0543,-0.0476,-0.0364,-0.0287,-0.0386,-0.013,-0.0122,-0.0103,-0.0082,-0.0276,-0.0044,-0.004,-0.0037,-0.0035,0,-0.0432,-0.0463,-0.0528,-0.0609,-0.0625,-0.0672,-0.0731,-0.0764,-0.0751,-0.0747,-0.071,-0.0658,-0.0591,-0.0555,-0.0341,-0.0387,-0.0252,-0.016,-0.0149,-0.0117,-0.0091,-0.0023,-0.0005,-0.0007,-0.0009,-0.0011,-0.0013,0,-0.0433,-0.0507,-0.0561,-0.0588,-0.0666,-0.0714,-0.0763,-0.079,-0.0813,-0.0803,-0.0796,-0.0698,-0.0648,-0.0473,-0.0279,-0.0289,-0.0018,-0.0022,0.0116,0.012,0.0075,0.0068,0.0144,0.0143,0.0143,0.0142,0.0141,0,-0.0454,-0.0504,-0.0568,-0.0597,-0.0684,-0.074,-0.0824,-0.0853,-0.0878,-0.0878,-0.0836,-0.0797,-0.0616,-0.0445,-0.0265,-0.0011,0.0002,0.0131,0.0177,0.0047,0.0035,0.0088,0.0079,0.0151,0.0149,0.0147,0.0146,0,-0.0457,-0.0492,-0.0557,-0.0643,-0.0685,-0.0748,-0.087,-0.0906,-0.0934,-0.093,-0.0926,-0.0831,-0.0619,-0.0413,-0.0132,-0.0001,0.0222,0.031,0.0183,0.0215,0.0318,0.0303,0.0488,0.049,0.0492,0.0493,0.0495,0,-0.0466,-0.0493,-0.0584,-0.0629,-0.0678,-0.0783,-0.0851,-0.0926,-0.0936,-0.0931,-0.0894,-0.0748,-0.0647,-0.0237,-0.005,0.029,0.0324,0.044,0.0354,0.0327,0.0353,0.0335,0.0319,0.0497,0.0498,0.0498,0.0499,0,-0.048,-0.0505,-0.0556,-0.0631,-0.0707,-0.0796,-0.0874,-0.0882,-0.0926,-0.0951,-0.0836,-0.0688,-0.0453,-0.0205,0.0052,0.0287,0.0352,0.0457,0.0455,0.0376,0.034,0.036,0.0342,0.0504,0.0503,0.0503,0.0503,0,-0.0494,-0.0524,-0.0571,-0.0643,-0.0721,-0.0762,-0.0825,-0.0825,-0.0848,-0.0817,-0.0772,-0.0595,-0.0501,-0.0202,0.0039,0.0257,0.0298,0.0349,0.0352,0.0348,0.0211,0.0139,0.0299,0,0,0,0,0,-0.0503,-0.0528,-0.0586,-0.065,-0.0713,-0.0753,-0.0811,-0.085,-0.0871,-0.0772,-0.0773,-0.0563,-0.0272,-0.017,0.006,0.0072,0.0337,0.0344,0.0399,0.0536,0.0529,0.0388,0,0,0,0,0,0,-0.0511,-0.0555,-0.0573,-0.0624,-0.0664,-0.0729,-0.0758,-0.0776,-0.0713,-0.0717,-0.0551,-0.0521,-0.0221,-0.0388,0.0061,0.0116,0.0178,0.0466,0.047,0.054,0.0534,0.0528,0.0381,0,0,0,0,0]}]]